Date,TemperatureHighF,TemperatureAvgF,TemperatureLowF,DewpointHighF,DewpointAvgF,DewpointLowF,HumidityHigh,HumidityAvg,HumidityLow,PressureMaxIn,PressureMinIn,WindSpeedMaxMPH,WindSpeedAvgMPH,GustSpeedMaxMPH,PrecipitationSumIn
2013-1-1,34.5,20.6,8.4,13.5,2.5,-12.0,69,46,31,29.27,29.15,0,0,0,0.00
2013-1-2,48.9,24.8,7.0,20.8,4.9,-13.3,73,43,27,29.21,29.09,5,0,5,0.04
2013-1-3,52.9,28.7,17.8,25.4,13.7,7.3,76,55,28,29.39,29.21,5,0,5,0.04
2013-1-4,55.2,32.4,14.9,22.9,14.9,5.4,76,51,27,29.36,29.18,6,1,8,0.00
2013-1-5,53.4,38.1,28.2,26.2,20.1,12.7,65,49,31,29.18,29.00,9,2,12,0.00
2013-1-6,59.9,35.3,18.1,22.6,12.6,3.2,65,42,18,29.36,29.18,6,1,6,0.00
2013-1-7,57.2,40.8,29.1,21.7,15.4,10.8,47,36,25,29.21,28.97,11,2,11,0.00
2013-1-8,64.8,44.6,32.2,27.7,20.9,16.1,57,40,23,29.15,28.88,10,2,10,0.00
2013-1-9,66.2,42.6,24.4,33.4,20.7,14.1,74,44,24,29.39,29.15,6,0,7,0.00
2013-1-10,47.3,42.9,33.3,43.2,35.2,18.4,89,76,40,29.27,28.71,9,1,11,0.28
2013-1-11,58.6,52.3,46.0,47.0,38.6,14.5,95,64,23,28.74,28.50,15,3,15,0.04
2013-1-12,46.8,28.2,18.9,23.7,6.8,0.0,52,40,31,29.09,28.74,11,3,11,0.00
2013-1-13,40.1,21.8,11.8,9.0,-1.6,-10.4,51,37,21,29.33,29.06,9,2,9,0.00
2013-1-14,49.6,22.8,7.0,15.6,-1.6,-11.3,62,36,17,29.44,29.33,6,0,6,0.00
2013-1-15,54.0,27.3,12.0,16.7,2.4,-8.5,60,37,15,29.36,29.12,4,0,4,0.00
2013-1-16,63.9,36.5,20.7,25.4,12.2,1.7,61,38,21,29.18,28.97,7,0,7,0.00
2013-1-17,66.6,39.8,22.3,31.8,19.4,10.6,77,47,23,29.44,29.18,4,0,4,0.00
2013-1-18,66.2,47.2,33.6,25.3,20.8,18.2,56,37,17,29.33,28.97,13,3,14,0.00
2013-1-19,67.3,48.5,37.0,24.3,18.9,11.8,53,33,15,29.21,28.91,7,2,7,0.00
2013-1-20,45.3,29.3,17.6,17.7,3.5,-5.2,49,34,20,29.39,29.21,7,2,7,0.00
2013-1-21,30.6,19.1,11.8,4.7,-0.9,-5.4,54,41,31,29.41,29.33,8,1,8,0.00
2013-1-22,37.0,22.8,12.7,6.9,-0.1,-5.0,49,37,27,29.33,29.18,10,2,10,0.00
2013-1-23,54.7,30.5,12.2,20.2,8.0,-0.9,62,41,23,29.39,29.12,8,2,10,0.00
2013-1-24,31.8,22.6,11.1,4.0,-2.4,-8.0,46,34,23,29.44,29.12,10,3,10,0.00
2013-1-25,55.9,34.1,16.5,19.4,7.3,-3.0,53,34,18,29.21,29.09,6,0,6,0.00
2013-1-26,61.0,42.6,25.9,21.6,14.6,8.6,61,35,16,29.21,29.00,9,1,12,0.00
2013-1-27,60.8,50.1,40.3,49.7,39.7,20.8,85,68,38,29.00,28.68,14,3,17,0.04
2013-1-28,76.8,61.8,47.8,54.9,42.2,36.0,70,52,24,28.79,28.59,15,2,15,0.00
2013-1-29,68.0,44.7,34.0,55.2,36.7,27.5,89,74,46,28.68,28.50,11,2,11,0.04
2013-1-30,34.0,27.1,16.5,31.9,15.1,4.5,96,62,41,28.94,28.53,6,0,6,0.04
2013-1-31,25.9,17.1,5.9,12.6,0.2,-14.2,72,48,34,29.41,28.91,14,1,14,0.00
2013-2-1,33.1,19.1,4.5,6.2,-2.4,-15.5,62,38,32,29.41,29.09,7,1,7,0.00
2013-2-2,56.3,39.1,24.4,28.1,17.9,5.6,64,43,30,29.18,29.06,6,0,6,0.00
2013-2-3,55.2,42.3,26.6,23.7,15.9,10.7,69,37,18,29.24,28.79,10,1,10,0.00
2013-2-4,49.8,38.1,23.7,23.8,16.9,13.1,69,44,29,28.97,28.74,10,2,10,0.00
2013-2-5,63.9,39.8,22.6,29.5,19.3,12.1,81,49,21,29.06,28.85,9,1,9,0.00
2013-2-6,66.0,48.2,26.1,38.1,26.8,15.0,73,46,24,29.06,28.79,10,2,11,0.00
2013-2-7,55.4,45.6,32.7,45.3,32.0,20.0,93,61,37,29.18,28.82,10,2,10,0.43
2013-2-8,50.5,36.3,29.5,25.4,20.5,17.9,79,54,30,29.30,29.15,7,1,7,0.00
2013-2-9,55.8,40.6,28.6,35.5,26.6,22.4,85,61,34,29.15,28.68,12,3,13,0.00
2013-2-10,53.6,44.5,36.5,46.0,27.2,14.2,97,55,29,28.91,28.44,15,4,15,0.12
2013-2-11,51.4,36.6,24.4,18.4,13.9,6.5,58,41,24,29.15,28.91,9,0,231,0.00
2013-2-12,49.6,33.2,20.5,21.4,14.5,9.7,73,49,27,29.15,28.91,0,0,3,0.00
2013-2-13,60.3,39.3,22.5,25.2,15.2,8.1,76,42,17,28.94,28.77,8,1,10,0.00
2013-2-14,54.9,41.5,30.2,26.7,17.5,10.2,60,39,26,29.18,28.79,9,1,14,0.00
2013-2-15,46.9,31.8,16.5,21.1,10.7,2.8,68,43,22,29.36,29.18,13,1,13,0.00
2013-2-16,41.0,32.0,19.4,18.9,11.9,6.0,70,46,29,29.30,29.00,10,1,10,0.00
2013-2-17,63.7,44.8,24.1,25.1,16.5,5.4,51,33,21,29.00,28.59,11,2,11,0.00
2013-2-18,59.5,43.7,23.2,33.9,19.7,6.3,48,38,29,29.06,28.44,15,4,15,0.00
2013-2-19,39.6,28.2,20.3,9.5,2.0,-9.7,58,35,18,29.30,29.06,10,2,10,0.00
2013-2-20,31.1,23.2,15.8,3.2,-2.3,-9.6,36,32,27,29.33,29.09,11,2,11,0.00
2013-2-21,28.9,25.0,21.0,23.0,15.0,2.3,85,67,36,29.12,28.71,10,3,10,0.00
2013-2-22,33.6,23.4,13.3,18.9,11.3,4.7,81,61,41,29.03,28.77,6,1,6,0.12
2013-2-23,39.9,23.1,4.8,17.0,9.9,-3.6,74,58,38,29.03,28.88,6,1,6,0.04
2013-2-24,48.9,33.3,13.6,25.8,16.5,8.6,81,54,30,28.97,28.82,9,1,9,0.00
2013-2-25,38.7,35.1,30.9,30.6,21.2,16.8,90,58,45,28.91,28.71,11,3,11,0.04
2013-2-26,36.9,33.8,31.5,31.5,27.7,24.8,93,78,64,28.85,28.65,12,1,12,0.00
2013-2-27,44.4,34.5,28.9,27.4,21.5,15.8,87,61,38,29.06,28.82,10,1,10,0.28
2013-2-28,37.2,32.9,30.0,21.8,18.0,15.8,68,54,43,29.18,29.03,13,1,13,0.00
2013-3-1,37.0,29.8,26.6,15.9,11.9,8.1,56,47,37,29.30,29.18,11,3,11,0.00
2013-3-2,46.0,32.2,23.0,14.9,10.6,6.7,52,41,28,29.33,29.12,7,1,8,0.00
2013-3-3,51.6,38.1,27.0,21.8,17.3,12.1,56,44,29,29.12,28.65,9,2,9,0.00
2013-3-4,61.2,44.2,34.5,29.1,24.0,21.2,64,46,27,28.97,28.62,10,2,10,0.00
2013-3-5,44.4,33.9,23.9,27.3,11.3,6.1,69,40,29,29.33,28.97,14,4,14,0.00
2013-3-6,49.8,31.5,16.9,20.1,11.7,6.4,75,46,27,29.39,29.21,8,1,8,0.00
2013-3-7,56.8,39.4,23.7,23.0,17.8,12.3,67,44,25,29.21,29.03,11,2,11,0.00
2013-3-8,64.9,50.9,35.4,38.4,28.3,19.0,54,43,27,29.12,28.88,11,3,11,0.00
2013-3-9,56.7,53.1,48.2,55.6,44.3,29.0,98,77,36,28.88,28.53,13,2,13,1.18
2013-3-10,52.7,36.4,25.9,52.0,32.9,15.0,98,87,63,28.91,28.53,15,2,15,0.08
2013-3-11,43.3,30.8,23.7,18.7,13.5,7.5,67,50,28,28.97,28.85,6,0,8,0.00
2013-3-12,54.0,38.4,28.6,26.1,15.2,7.6,70,41,20,29.33,28.97,13,1,13,0.00
2013-3-13,51.6,34.9,17.8,23.8,12.8,6.8,79,44,19,29.44,29.24,6,0,6,0.00
2013-3-14,35.2,34.6,34.0,16.2,15.4,14.1,47,45,42,29.24,29.18,3,0,3,0.00
2013-3-15,90.3,63.6,34.3,39.1,26.2,14.8,79,34,7,29.00,28.62,8,1,10,0.00
2013-3-16,58.5,43.9,35.2,34.1,25.5,17.8,71,49,33,29.03,28.68,13,4,15,0.00
2013-3-17,46.6,36.2,32.2,30.2,23.8,17.6,81,62,38,29.03,28.74,10,3,11,0.00
2013-3-18,60.4,44.1,33.4,34.1,20.6,4.3,87,47,17,29.03,28.71,9,2,9,0.00
2013-3-19,43.5,34.7,25.2,34.4,19.6,2.1,89,56,30,29.21,29.03,3,0,3,0.20
2013-3-20,48.0,34.3,23.0,34.0,9.5,-1.0,92,38,19,29.39,29.09,11,2,11,0.00
2013-3-21,38.7,31.2,26.6,25.0,11.4,1.5,83,45,31,29.09,28.85,10,2,10,0.00
2013-3-22,38.8,33.1,29.5,29.6,26.3,24.1,88,76,59,28.97,28.88,6,1,6,0.00
2013-3-23,38.7,34.2,30.4,30.9,25.3,17.6,93,71,43,29.00,28.85,8,1,8,0.00
2013-3-24,39.6,30.2,21.9,27.8,18.9,8.9,97,66,36,29.09,28.85,8,0,8,0.04
2013-3-25,41.7,30.2,20.8,21.3,14.8,8.1,69,53,38,29.33,29.06,10,2,10,0.00
2013-3-26,43.9,30.8,16.0,17.2,12.7,9.0,77,49,29,29.39,29.24,6,1,6,0.16
2013-3-27,55.9,40.2,25.3,23.3,18.3,12.8,60,43,26,29.24,29.12,11,2,11,0.00
2013-3-28,70.5,49.5,26.8,33.6,25.2,19.5,84,44,19,29.18,29.06,6,1,8,0.00
2013-3-29,74.7,57.9,41.7,39.9,33.0,25.6,73,43,18,29.15,29.03,9,2,9,0.00
2013-3-30,77.0,61.1,52.2,56.6,42.5,29.2,97,54,30,29.03,28.82,8,1,8,0.20
2013-3-31,70.9,57.1,45.1,42.9,28.7,11.3,77,38,14,28.97,28.91,13,2,13,0.00
2013-4-1,53.2,42.7,33.3,25.7,13.4,2.1,58,32,18,29.27,28.94,10,3,10,0.00
2013-4-2,60.1,42.1,27.1,16.4,10.0,3.5,47,28,14,29.30,29.18,8,1,8,0.00
2013-4-3,55.9,42.4,28.4,20.2,15.6,9.1,62,36,20,29.33,29.18,8,1,8,0.00
2013-4-4,70.2,48.7,29.1,28.2,21.6,15.3,70,39,14,29.21,29.03,9,1,9,0.00
2013-4-5,76.3,56.2,34.3,37.5,27.7,19.6,77,39,13,29.12,28.79,15,2,15,0.00
2013-4-6,81.3,65.6,53.2,38.2,31.8,24.4,43,30,14,28.79,28.65,12,3,13,0.00
2013-4-7,77.2,60.1,44.4,54.0,37.5,30.8,74,47,20,28.82,28.62,9,2,9,0.00
2013-4-8,82.2,65.7,53.2,55.2,48.9,44.3,84,57,30,28.68,28.62,9,2,9,0.00
2013-4-9,78.8,65.5,40.6,59.7,50.4,33.8,77,59,34,28.82,28.56,10,3,10,0.04
2013-4-10,43.0,38.1,34.5,41.6,36.6,0.0,98,94,77,28.94,28.68,10,1,10,0.83
2013-4-11,49.6,38.5,32.7,33.6,22.6,16.4,97,56,30,28.82,28.71,9,2,10,0.00
2013-4-12,60.3,42.6,29.8,24.3,21.0,18.0,71,45,25,29.00,28.77,9,2,11,0.00
2013-4-13,72.5,53.2,32.0,36.9,29.5,22.9,80,44,22,29.00,28.62,9,2,9,0.00
2013-4-14,73.8,62.5,52.7,40.0,33.7,19.7,46,35,24,28.71,28.44,17,4,17,0.00
2013-4-15,55.0,50.2,45.7,34.2,22.2,16.7,60,34,26,28.97,28.71,8,2,8,0.00
2013-4-16,51.1,45.5,40.1,27.3,21.6,17.9,49,39,30,29.12,28.97,10,4,10,0.00
2013-4-17,50.5,47.3,43.7,46.9,39.9,27.3,98,77,47,29.03,28.62,9,2,9,0.51
2013-4-18,44.2,38.8,35.4,43.2,30.7,17.5,98,75,47,28.94,28.62,11,3,11,0.24
2013-4-19,60.6,43.7,29.5,23.9,18.8,15.3,70,40,19,29.06,28.91,10,2,10,0.00
2013-4-20,64.8,47.2,27.9,30.0,22.7,17.4,78,42,20,29.18,29.06,11,2,11,0.00
2013-4-21,72.7,58.2,45.1,33.1,30.1,25.1,55,36,22,29.15,29.03,12,3,12,0.00
2013-4-22,66.4,53.8,39.4,49.1,35.9,30.6,88,53,29,29.06,28.88,8,1,10,0.12
2013-4-23,39.4,35.4,32.7,34.8,31.8,27.8,98,87,70,29.18,29.03,12,2,12,0.59
2013-4-24,63.9,44.6,23.7,30.4,21.9,15.0,84,46,18,29.24,29.12,8,1,10,0.00
2013-4-25,76.6,55.2,30.6,37.0,24.9,14.5,81,37,11,29.27,29.06,10,1,10,0.00
2013-4-26,59.9,52.8,49.6,48.1,41.7,25.6,86,67,36,29.15,29.09,13,1,14,0.24
2013-4-27,63.5,53.7,47.3,50.7,43.5,37.8,93,71,40,29.15,28.97,6,0,6,0.20
2013-4-28,83.3,62.3,41.5,52.6,44.1,38.5,97,58,22,28.97,28.74,10,2,10,0.00
2013-4-29,93.4,73.1,52.3,55.1,46.7,36.1,85,45,14,28.77,28.56,10,2,10,0.00
2013-4-30,91.2,76.0,65.8,46.0,42.5,38.8,46,31,19,28.77,28.59,14,4,14,0.00
2013-5-1,80.6,60.3,39.7,47.8,37.7,27.4,90,46,25,29.21,28.77,15,3,15,0.24
2013-5-2,40.8,37.9,34.2,38.4,32.3,19.6,98,82,44,29.41,29.21,17,3,17,1.18
2013-5-3,55.2,43.5,33.8,31.3,24.8,17.1,76,51,27,29.30,28.91,13,3,14,0.00
2013-5-4,50.2,42.9,37.4,41.5,36.7,30.1,94,79,57,29.03,28.85,11,3,11,0.16
2013-5-5,59.7,50.7,45.0,43.2,40.6,36.6,90,70,45,29.12,29.03,8,1,8,0.00
2013-5-6,77.5,59.8,50.7,46.3,42.7,37.6,83,57,24,29.09,29.00,8,1,8,0.00
2013-5-7,84.6,63.6,43.0,54.8,40.9,33.9,91,51,19,29.06,28.94,6,1,6,0.00
2013-5-8,84.2,67.3,58.1,59.8,50.2,41.9,86,59,28,28.97,28.82,10,1,11,0.51
2013-5-9,81.5,66.4,57.2,60.3,51.3,44.2,93,63,30,28.94,28.82,9,1,10,0.04
2013-5-10,75.2,61.2,50.0,53.1,42.6,32.7,86,55,24,29.03,28.91,10,2,10,0.00
2013-5-11,72.1,57.8,44.8,50.7,27.0,7.4,93,39,14,29.24,29.03,13,2,17,0.00
2013-5-12,78.4,56.1,34.0,35.3,24.4,16.5,76,35,13,29.27,29.09,9,0,9,0.00
2013-5-13,87.4,67.0,45.7,46.7,37.1,30.1,67,37,18,29.12,28.88,8,2,9,0.00
2013-5-14,99.5,80.3,61.7,46.0,35.2,22.7,47,24,8,28.88,28.77,15,3,15,0.00
2013-5-15,96.3,78.7,66.6,58.9,46.5,38.0,72,35,17,28.85,28.77,12,2,12,0.00
2013-5-16,89.2,73.8,61.9,60.7,51.5,41.2,86,51,21,28.85,28.77,8,0,8,0.00
2013-5-17,91.0,73.3,60.4,61.8,52.2,43.8,90,53,20,28.91,28.82,8,0,8,0.00
2013-5-18,89.8,75.9,60.4,66.3,57.8,45.1,81,56,33,28.88,28.68,17,2,17,0.00
2013-5-19,86.5,69.2,58.3,63.1,57.6,48.1,94,71,33,28.82,28.53,12,2,13,0.87
2013-5-20,89.8,71.2,55.6,61.5,47.7,33.9,96,52,15,28.71,28.59,9,1,10,0.00
2013-5-21,81.0,67.5,54.7,48.2,39.1,31.9,70,38,21,28.77,28.68,10,1,12,0.00
2013-5-22,77.5,63.8,52.5,43.8,39.8,36.5,69,43,24,28.94,28.74,8,1,8,0.00
2013-5-23,79.3,62.5,49.6,48.4,42.1,38.6,82,51,25,29.18,28.94,8,1,8,0.00
2013-5-24,83.1,64.6,49.6,51.8,42.3,35.5,87,50,20,29.24,29.06,9,2,10,0.00
2013-5-25,90.7,75.6,64.2,57.1,50.5,43.8,68,44,23,29.12,28.94,10,2,13,0.00
2013-5-26,88.2,77.7,68.5,62.3,57.2,52.2,79,52,31,29.00,28.82,10,2,12,0.00
2013-5-27,83.7,72.8,62.6,68.1,59.9,51.2,98,66,45,28.88,28.62,13,3,13,2.64
2013-5-28,88.7,78.6,70.9,63.6,59.8,56.9,72,54,36,28.77,28.62,11,2,11,0.00
2013-5-29,88.2,76.3,67.5,59.1,56.6,29.3,67,51,31,28.77,28.56,13,4,13,0.00
2013-5-30,81.5,67.6,61.9,64.3,57.9,50.7,93,74,35,28.71,28.56,8,1,8,0.71
2013-5-31,87.1,71.7,58.8,69.5,60.5,43.8,98,73,27,28.74,28.62,9,0,9,0.63
2013-6-1,70.2,64.1,57.2,62.7,45.5,38.0,80,52,33,28.79,28.71,5,0,5,0.00
2013-6-2,77.5,62.8,52.0,43.4,38.1,31.0,65,42,22,29.09,29.00,6,0,8,0.00
2013-6-3,83.5,64.8,47.8,50.1,42.3,37.4,83,49,21,29.03,28.82,6,0,8,0.00
2013-6-4,88.7,72.1,63.7,56.6,52.6,48.4,69,52,28,28.94,28.79,4,0,4,0.00
2013-6-5,76.5,66.7,60.8,63.5,55.7,47.7,85,69,40,28.97,28.91,8,0,8,0.12
2013-6-6,85.1,67.6,53.8,57.0,45.3,34.8,90,52,19,28.97,28.91,6,0,8,0.00
2013-6-7,86.7,67.7,50.7,55.8,41.9,28.1,90,47,13,29.00,28.88,3,0,5,0.00
2013-6-8,88.9,70.1,54.7,59.9,46.8,41.2,87,49,20,28.91,28.71,10,0,10,0.55
2013-6-9,86.0,71.9,60.4,64.3,49.4,34.5,97,54,16,28.85,28.77,4,0,4,0.08
2013-6-10,93.7,75.2,56.1,63.7,51.0,40.3,91,49,18,28.88,28.77,4,0,4,0.00
2013-6-11,99.7,83.4,70.9,64.8,53.4,33.1,74,42,10,28.85,28.74,10,0,10,0.00
2013-6-12,101.8,86.6,74.1,61.7,53.2,44.0,60,35,16,28.94,28.71,8,0,8,0.00
2013-6-13,74.1,68.4,64.4,45.0,42.8,40.5,49,40,34,29.00,28.94,5,0,5,0.00
2013-6-15,97.0,81.7,68.9,68.0,58.9,48.7,79,50,20,28.94,28.85,6,0,8,0.00
2013-6-16,94.6,78.7,68.0,68.8,61.4,53.6,86,59,27,28.94,28.88,4,0,5,0.00
2013-6-17,92.1,75.9,66.6,69.0,61.2,50.3,95,65,27,29.00,28.85,5,0,5,0.20
2013-6-18,94.5,74.3,63.3,66.0,57.7,47.7,93,62,21,29.00,28.94,6,0,6,0.04
2013-6-19,97.2,77.5,63.0,65.2,53.8,42.2,92,51,17,29.00,28.91,4,0,6,0.00
2013-6-20,98.4,82.5,68.9,66.6,58.3,53.2,71,47,23,28.97,28.82,9,0,9,0.00
2013-6-21,100.8,85.5,75.2,66.4,58.7,50.3,70,44,20,28.91,28.82,10,0,10,0.00
2013-6-22,89.2,78.1,73.9,61.0,57.7,52.7,64,50,30,28.91,28.88,4,0,5,0.00
2013-6-23,95.9,81.7,74.8,69.3,59.1,49.6,73,48,25,28.91,28.79,6,0,8,0.12
2013-6-24,97.7,83.7,75.2,62.8,55.2,47.8,63,40,21,28.91,28.77,6,0,6,0.00
2013-6-25,95.7,81.8,72.9,71.4,60.5,54.4,89,52,26,28.85,28.68,13,0,13,0.20
2013-6-26,107.4,87.6,71.8,70.3,53.3,25.5,81,40,6,28.88,28.71,8,0,8,0.00
2013-6-27,93.7,80.1,71.4,70.9,61.6,52.2,95,57,26,28.97,28.79,6,0,6,0.16
2013-6-28,94.3,79.3,65.8,71.5,54.1,36.0,98,53,14,28.97,28.88,5,0,7,0.00
2013-6-29,91.0,76.4,61.5,54.1,44.2,30.3,71,36,13,28.91,28.82,8,0,8,0.00
2013-6-30,88.0,73.0,59.0,54.0,43.9,36.2,74,40,18,29.03,28.91,8,0,8,0.00
2013-7-1,90.7,72.4,53.8,53.0,40.9,24.5,84,40,10,29.12,29.03,8,0,10,0.00
2013-7-2,93.7,73.6,54.9,56.7,41.2,23.9,87,40,9,29.12,29.03,5,0,8,0.00
2013-7-3,99.0,75.1,57.2,55.1,41.6,25.4,80,39,8,29.06,28.94,4,0,4,0.00
2013-7-4,100.2,78.3,58.8,51.0,40.5,26.0,66,32,8,29.00,28.91,4,0,4,0.00
2013-7-5,99.9,82.0,64.8,53.0,44.0,26.8,62,30,8,28.97,28.85,7,0,7,0.00
2013-7-6,92.8,78.2,68.7,60.6,51.5,45.0,66,42,20,28.91,28.85,4,0,4,0.04
2013-7-7,99.0,83.8,70.3,59.0,52.0,46.6,67,36,17,28.94,28.85,6,0,6,0.00
2013-7-8,106.7,87.9,74.1,62.9,51.5,39.5,68,33,11,29.00,28.91,5,0,5,0.00
2013-7-9,110.7,91.5,78.6,60.9,52.0,33.8,52,30,8,28.97,28.79,6,0,6,0.00
2013-7-10,101.5,86.4,72.7,58.6,48.5,33.6,51,29,10,29.03,28.85,10,0,10,0.00
2013-7-11,80.6,74.7,70.0,54.5,47.9,40.5,58,40,24,29.03,28.94,2,0,3,0.00
2013-7-12,102.2,83.9,68.7,54.7,49.0,42.2,54,32,16,29.00,28.91,8,0,8,0.00
2013-7-13,96.1,83.2,72.0,61.0,51.5,44.8,41,34,26,29.00,28.88,3,0,6,0.00
2013-7-14,96.1,80.6,68.5,65.5,47.8,31.0,84,38,11,29.09,28.94,9,0,9,0.12
2013-7-15,98.2,80.8,64.8,61.5,50.0,41.9,77,39,16,29.15,29.06,8,0,8,0.00
2013-7-16,104.2,85.2,70.2,64.3,51.2,38.7,75,36,12,29.24,29.15,3,0,3,0.00
2013-7-17,105.6,86.2,70.2,66.0,52.2,38.0,78,37,12,29.30,29.15,2,0,2,0.00
2013-7-18,104.5,87.2,70.3,64.5,49.8,33.0,70,32,9,29.18,28.97,4,0,4,0.00
2013-7-19,107.6,88.2,73.8,71.2,50.4,33.2,90,33,9,28.97,28.82,3,0,6,0.47
2013-7-20,97.5,77.4,71.1,76.2,67.1,48.4,96,75,20,28.91,28.82,6,0,6,0.08
2013-7-21,96.3,79.5,69.3,71.5,61.1,51.8,91,59,24,28.91,28.79,0,0,2,0.00
2013-7-22,101.7,84.1,71.1,72.8,58.9,44.7,89,49,16,28.82,28.77,4,0,4,0.00
2013-7-23,90.9,78.0,71.1,72.5,60.4,51.9,89,58,28,28.94,28.79,6,0,6,0.00
2013-7-24,95.5,78.8,63.7,55.3,45.7,31.4,69,35,14,29.03,28.91,4,0,4,0.00
2013-7-25,86.0,75.0,65.1,68.4,57.2,47.7,85,57,29,29.06,28.97,0,0,2,0.08
2013-7-26,93.6,77.6,67.3,69.7,53.4,33.1,90,52,17,29.06,28.97,8,0,8,0.08
2013-7-27,76.3,65.7,56.7,55.3,47.7,40.8,80,54,31,29.12,28.97,3,0,3,0.00
2013-7-28,81.7,67.5,59.5,61.4,49.6,36.8,89,58,22,29.03,29.00,2,0,3,0.04
2013-7-29,70.3,66.1,62.1,69.4,63.1,55.4,97,90,75,29.03,28.91,4,0,4,1.38
2013-7-30,81.3,73.5,68.7,73.3,68.5,62.2,98,86,59,29.06,28.94,4,0,4,0.00
2013-7-31,94.1,78.1,64.8,73.5,58.3,44.1,95,58,20,29.12,29.03,4,0,4,0.00
2013-8-1,98.1,79.9,64.8,71.1,56.1,43.4,93,52,17,29.09,28.91,4,0,4,0.00
2013-8-2,93.7,77.7,64.6,72.7,64.0,57.7,96,66,35,29.00,28.82,5,0,6,0.67
2013-8-3,88.3,78.7,72.1,68.4,62.2,55.8,87,60,35,29.09,28.88,4,0,4,0.00
2013-8-4,78.4,72.5,67.3,70.5,65.1,57.3,93,78,60,29.12,29.00,4,0,4,0.94
2013-8-5,90.7,78.4,69.4,71.6,65.0,57.5,93,67,34,29.00,28.82,4,0,4,0.00
2013-8-6,96.4,81.8,71.2,76.8,66.3,53.8,95,64,24,28.85,28.77,6,0,6,0.87
2013-8-7,93.2,79.0,68.9,77.8,64.7,50.8,95,65,31,28.94,28.77,4,0,4,1.34
2013-8-8,75.9,71.2,67.8,63.3,59.6,57.0,78,67,56,29.00,28.88,5,0,5,0.04
2013-8-9,81.7,73.2,64.4,63.0,57.0,46.1,81,60,31,29.12,28.97,2,0,2,0.00
2013-8-10,93.9,75.4,60.4,70.1,52.8,41.1,95,54,17,29.18,29.06,5,0,6,0.00
2013-8-11,97.7,78.4,62.2,62.7,53.3,43.4,84,47,18,29.12,28.97,3,0,3,0.00
2013-8-12,92.1,76.9,65.8,74.2,60.1,49.6,96,61,25,29.03,28.94,4,0,4,0.83
2013-8-13,89.8,75.5,66.0,63.4,51.2,37.3,82,48,18,29.12,29.00,6,0,6,0.00
2013-8-14,88.3,72.5,59.4,63.3,50.5,40.3,92,52,20,29.18,29.06,6,0,6,0.00
2013-8-15,79.5,70.5,63.5,56.3,50.0,44.5,62,49,30,29.09,29.00,6,0,7,0.00
2013-8-16,88.2,72.3,62.2,51.2,45.8,38.5,63,42,19,29.27,29.09,5,0,5,0.00
2013-8-17,89.6,70.5,55.2,63.0,45.0,34.5,90,47,15,29.39,29.09,5,0,5,0.00
2013-8-18,90.9,72.1,54.7,63.0,48.4,39.6,92,50,18,29.44,29.06,3,0,4,0.00
2013-8-19,93.2,77.2,63.0,58.8,52.2,42.1,81,47,18,29.21,29.00,4,0,4,0.00
2013-8-20,97.9,80.6,68.4,61.5,52.9,43.4,75,44,16,29.15,29.00,4,0,4,0.00
2013-8-21,100.4,82.7,70.7,59.9,52.4,44.7,64,39,16,29.18,29.00,3,0,3,0.00
2013-8-22,98.8,82.2,71.4,63.4,57.1,46.3,72,47,17,29.24,29.06,3,0,3,0.00
2013-8-23,99.3,82.2,69.4,69.5,56.4,44.1,86,48,16,29.39,29.09,4,0,8,0.00
2013-8-24,100.2,84.3,73.0,62.5,55.8,45.0,65,42,16,29.59,29.15,8,0,8,0.00
2013-8-25,101.1,84.6,71.8,64.2,56.2,44.1,74,43,16,29.74,29.21,4,0,6,0.00
2013-8-26,101.8,85.2,72.7,66.5,55.8,43.5,79,43,15,29.62,29.15,6,0,6,0.00
2013-8-27,101.1,85.1,72.7,60.8,49.4,32.2,65,35,10,29.59,29.24,5,0,5,0.00
2013-8-28,100.0,84.1,71.1,64.8,53.7,44.6,72,40,16,29.80,29.27,4,0,4,0.00
2013-8-29,103.1,86.2,74.7,66.0,56.8,44.6,71,42,15,30.15,29.18,4,0,4,0.00
2013-8-30,108.1,88.7,72.1,63.1,49.8,25.5,68,32,6,30.45,29.09,2,0,2,0.00
2013-8-31,101.8,84.4,73.8,69.5,57.6,45.4,68,44,16,30.01,29.27,2,0,3,0.08
2013-9-1,95.5,78.9,66.6,73.7,57.4,41.5,93,54,21,30.86,29.95,8,0,8,0.28
2013-9-2,91.0,73.4,60.1,65.7,48.2,34.5,91,49,15,31.01,29.56,4,0,4,0.00
2013-9-3,94.5,72.9,55.2,63.9,44.7,24.8,92,47,9,31.01,29.62,2,0,2,0.00
2013-9-4,98.8,75.9,58.1,64.6,45.7,25.9,89,44,8,31.01,29.98,5,0,5,0.00
2013-9-5,99.5,78.7,61.2,61.3,45.9,31.0,82,39,10,31.01,29.50,2,0,3,0.00
2013-9-6,100.0,82.3,68.0,53.9,47.9,41.7,57,33,15,31.01,29.86,3,0,3,0.00
2013-9-7,104.7,86.2,71.2,57.8,49.8,32.8,59,33,9,31.01,30.95,3,0,4,0.00
2013-9-8,108.7,89.8,73.9,59.3,45.6,25.6,55,26,6,31.01,30.54,3,0,3,0.00
2013-9-9,100.4,85.6,73.9,49.2,42.4,24.7,41,25,9,31.01,31.01,8,0,8,0.00
2013-9-10,100.6,83.8,71.1,51.7,45.8,32.7,50,30,10,31.01,31.01,9,0,9,0.00
2013-9-11,102.7,85.3,70.2,57.7,45.9,32.7,50,29,9,31.01,31.01,5,0,5,0.00
2013-9-12,91.4,77.3,67.8,72.0,51.5,33.1,89,46,19,31.01,31.01,5,0,6,0.12
2013-9-13,86.5,68.8,55.8,45.2,34.9,24.6,61,32,13,31.01,31.01,5,0,5,0.00
2013-9-14,87.1,68.1,50.4,46.0,37.4,28.2,81,39,13,31.01,31.01,4,0,4,0.00
2013-9-15,97.3,74.2,62.6,60.2,46.8,35.0,92,42,16,31.01,31.01,8,0,8,0.71
2013-9-16,63.1,61.1,59.9,60.8,59.0,55.7,98,93,80,31.01,31.01,6,0,6,0.43
2013-9-17,79.2,68.5,61.0,68.8,60.7,53.4,97,79,44,31.01,31.01,8,0,8,0.71
2013-9-18,93.7,78.8,67.1,67.3,55.8,43.5,95,53,19,31.01,31.01,12,0,12,0.00
2013-9-19,95.7,78.7,67.1,64.9,55.3,43.0,85,51,17,31.01,31.01,8,0,11,0.24
2013-9-20,78.3,65.1,52.5,60.9,38.8,24.4,81,43,15,31.01,31.01,8,0,8,0.00
2013-9-21,85.8,64.5,47.7,59.2,40.3,28.1,92,50,16,31.01,31.01,4,0,4,0.00
2013-9-22,83.5,66.1,52.5,54.4,39.6,30.1,85,43,16,31.01,31.01,6,0,7,0.00
2013-9-23,82.8,66.7,52.0,48.3,38.8,27.0,78,41,14,31.01,31.01,8,0,10,0.00
2013-9-24,75.7,66.3,58.5,49.2,44.7,41.3,65,47,31,31.01,31.01,5,0,5,0.00
2013-9-25,88.5,69.0,53.1,61.7,48.1,38.9,91,54,19,31.01,31.01,5,0,5,0.00
2013-9-26,92.1,74.7,60.4,55.7,46.1,35.6,80,43,14,31.01,31.01,8,0,8,0.00
2013-9-27,91.2,76.9,67.3,49.6,43.9,34.6,52,34,15,31.01,31.01,8,0,8,0.00
2013-9-28,75.4,66.3,50.5,62.0,44.0,29.0,82,48,21,31.01,17.72,5,0,7,0.16
2013-9-29,82.2,60.6,43.0,57.0,37.1,22.4,93,52,12,17.72,17.72,0,0,0,0.00
2013-9-30,84.6,64.2,45.5,58.6,38.6,27.0,91,46,13,17.72,17.72,4,0,4,0.00
2013-10-1,90.7,70.4,54.9,63.2,48.9,41.4,89,52,20,17.72,17.72,0,0,0,0.00
2013-10-2,89.2,71.6,59.7,68.3,55.3,45.0,93,62,24,17.72,17.72,6,0,6,0.04
2013-10-3,86.9,73.3,63.1,67.9,59.0,50.2,92,64,30,17.72,17.72,10,0,10,0.12
2013-10-4,91.9,76.1,57.4,62.6,54.6,33.3,84,52,19,17.72,17.72,10,0,10,0.31
2013-10-5,64.4,53.0,44.1,32.3,24.4,18.8,47,34,18,17.72,17.72,8,0,8,0.00
2013-10-6,68.5,53.1,42.6,34.5,27.9,21.7,64,39,23,17.72,17.72,6,0,6,0.00
2013-10-7,81.3,57.8,38.3,42.7,28.9,18.5,80,40,12,17.72,17.72,2,0,4,0.00
2013-10-8,79.3,62.4,46.4,43.5,31.6,19.8,70,36,12,17.72,17.72,9,0,9,0.00
2013-10-9,69.1,59.4,52.5,37.9,35.4,32.3,57,41,26,17.72,0.00,3,0,3,0.00
2013-10-10,84.2,67.0,54.1,44.5,38.9,32.3,64,39,19,0.00,0.00,8,0,8,0.00
2013-10-11,82.9,69.0,59.4,54.1,46.4,33.3,66,46,26,0.00,0.00,8,0,8,0.00
2013-10-12,77.2,59.1,44.6,41.4,29.4,15.4,76,37,13,0.00,0.00,5,0,6,0.00
2013-10-13,76.1,56.1,37.8,50.6,26.8,14.5,88,42,10,0.00,0.00,8,0,8,0.00
2013-10-14,73.4,60.0,52.9,61.5,40.7,22.2,92,54,24,0.00,0.00,13,0,13,0.67
2013-10-15,64.6,54.5,43.5,59.4,34.3,23.2,94,51,24,0.00,0.00,6,0,6,0.04
2013-10-16,66.9,53.0,42.6,30.2,26.4,21.0,58,37,18,0.00,0.00,2,0,2,0.00
2013-10-17,72.5,53.1,36.9,43.9,26.6,15.9,80,41,14,0.00,0.00,3,0,3,0.00
2013-10-18,45.3,39.1,33.6,33.5,30.3,26.3,88,71,50,0.00,0.00,0,0,0,0.28
2013-10-19,68.2,46.8,28.9,48.9,27.9,17.9,96,58,15,0.00,0.00,8,0,8,0.00
2013-10-20,79.9,57.2,41.0,37.3,29.9,21.3,65,40,13,0.00,0.00,3,0,3,0.00
2013-10-21,65.5,50.7,39.4,29.7,24.1,15.3,61,38,15,0.00,0.00,6,0,6,0.00
2013-10-22,68.5,51.7,38.8,38.2,27.5,20.6,70,41,22,0.00,0.00,7,0,7,0.00
2013-10-23,60.3,45.0,31.3,34.4,25.7,21.7,78,51,25,0.00,0.00,0,0,0,0.00
2013-10-24,60.6,43.7,30.6,29.4,20.8,6.4,64,44,17,0.00,0.00,4,0,4,0.00
2013-10-25,63.9,43.9,26.1,26.7,17.5,8.9,80,42,13,0.00,0.00,5,0,5,0.00
2013-10-26,69.1,50.8,34.3,40.1,23.2,10.2,73,38,15,0.00,0.00,6,0,6,0.00
2013-10-27,70.7,47.5,26.6,41.5,20.1,12.7,85,42,12,0.00,0.00,3,0,3,0.00
2013-10-28,66.9,50.6,36.0,45.3,32.5,16.8,74,51,29,0.00,0.00,4,0,4,0.00
2013-10-29,65.7,59.4,53.6,63.9,55.8,43.2,96,88,65,0.00,0.00,3,0,3,0.31
2013-10-30,75.2,62.4,54.1,66.8,57.4,52.3,94,84,48,0.00,0.00,4,0,4,1.02
2013-10-31,59.9,50.9,41.2,52.7,44.0,31.3,98,80,38,0.00,0.00,3,0,3,0.55
2013-11-1,66.4,50.0,37.8,38.7,31.1,0.0,86,54,23,0.00,0.00,4,0,4,0.04
2013-11-2,55.9,42.1,36.3,26.4,21.4,13.5,66,47,20,0.00,0.00,0,0,0,0.00
2013-11-3,61.5,50.7,36.1,28.2,23.8,21.1,68,37,24,0.00,0.00,9,0,9,0.00
2013-11-4,67.8,57.8,50.9,41.6,33.0,27.4,57,40,25,0.00,0.00,10,0,10,0.00
2013-11-5,59.9,56.1,41.9,58.2,50.9,37.6,94,83,58,0.00,0.00,3,0,3,0.55
2013-11-6,47.3,38.7,30.2,37.7,27.2,20.6,88,65,41,0.00,0.00,5,0,5,0.00
2013-11-7,62.4,42.7,27.5,40.8,23.5,13.3,92,55,19,0.00,0.00,6,0,6,0.00
2013-11-14,62.2,47.6,35.4,19.1,14.6,8.4,40,28,14,0.00,0.00,7,0,8,0.00
2013-11-15,63.1,50.6,34.7,37.9,25.7,15.5,57,39,25,0.00,0.00,9,0,9,0.00
2013-11-16,75.2,63.9,51.8,51.5,42.3,31.8,72,49,22,0.00,0.00,10,1,10,0.00
2013-11-17,68.5,58.5,42.1,52.8,24.0,8.5,68,30,12,0.00,0.00,9,1,9,0.00
2013-11-18,67.5,45.5,29.7,32.8,16.8,4.3,76,37,12,0.00,0.00,4,0,4,0.00
2013-11-19,65.7,49.9,29.8,20.8,13.3,7.2,59,26,13,0.00,0.00,9,0,9,0.00
2013-11-20,58.1,49.9,43.3,28.0,20.6,6.6,54,33,16,0.00,0.00,8,0,8,0.16
2013-11-21,48.9,38.2,27.3,33.9,26.7,17.1,80,64,49,0.00,0.00,8,0,8,0.00
2013-11-22,32.0,26.5,22.6,17.6,11.4,6.5,67,53,43,0.00,0.00,0,0,0,0.00
2013-11-23,32.9,24.3,14.5,11.3,2.1,-6.2,53,39,23,0.00,0.00,0,0,0,0.00
2013-11-24,33.8,22.7,12.4,4.4,-0.9,-5.0,51,36,23,0.00,0.00,0,0,0,0.00
2013-11-25,50.0,33.5,26.4,15.0,8.2,2.5,56,35,24,0.00,0.00,4,0,4,0.00
2013-11-26,43.7,29.2,17.4,22.0,7.6,-5.4,71,43,18,0.00,0.00,11,0,11,0.00
2013-11-27,43.2,27.2,12.2,8.7,0.1,-6.2,54,32,18,0.00,0.00,2,0,2,0.00
2013-11-28,49.3,32.2,19.9,17.3,6.9,0.8,56,35,21,0.00,0.00,6,0,6,0.00
2013-11-29,56.8,35.6,18.5,19.4,11.1,6.1,69,39,17,0.00,0.00,4,0,4,0.00
2013-11-30,63.5,43.1,28.9,26.2,19.2,11.7,62,40,23,0.00,0.00,2,0,2,0.00
2013-12-1,64.0,40.5,24.3,35.7,21.2,16.7,84,51,22,0.00,0.00,0,0,0,0.00
2013-12-2,61.3,46.0,33.1,35.6,29.0,20.3,74,55,26,0.00,0.00,3,0,3,0.00
2013-12-3,66.4,49.0,38.7,39.0,31.5,26.1,83,55,24,0.00,0.00,3,0,3,0.00
2013-12-4,41.0,30.7,21.2,34.1,16.2,-0.5,83,56,37,0.00,0.00,5,0,5,0.00
2013-12-5,22.8,18.7,14.4,2.5,-3.6,-6.6,45,37,33,0.00,0.00,0,0,0,0.00
2013-12-6,22.3,14.5,6.8,-6.1,-13.8,-22.5,34,27,22,0.00,0.00,0,0,0,0.00
2013-12-7,26.2,14.8,1.4,-4.5,-15.2,-27.0,37,24,21,0.00,0.00,0,0,0,0.00
2013-12-8,25.2,20.7,12.4,13.0,5.9,-8.0,67,53,27,0.00,0.00,0,0,0,0.00
2013-12-9,21.6,11.5,6.1,4.9,-5.1,-15.9,67,49,33,0.00,0.00,0,0,0,0.00
2013-12-10,46.6,25.7,9.9,12.8,1.3,-12.9,53,36,20,0.00,0.00,0,0,0,0.00
2013-12-11,33.6,20.8,8.8,13.8,-3.2,-20.6,63,37,20,0.00,0.00,5,0,5,0.00
2013-12-12,13.6,10.6,9.0,-16.4,-19.1,-20.5,24,24,24,0.00,0.00,0,0,0,0.00
2013-12-14,36.3,26.0,15.3,25.6,10.9,3.2,78,54,32,0.00,0.00,0,0,0,0.00
2013-12-15,58.1,35.7,14.7,22.4,13.7,3.4,76,45,19,0.00,0.00,0,0,0,0.00
2013-12-16,66.4,42.2,24.4,22.9,13.9,9.0,62,35,12,0.00,0.00,6,0,6,0.00
2013-12-17,55.9,34.2,21.7,28.0,12.2,2.3,78,44,17,0.00,0.00,5,0,5,0.00
2013-12-18,67.5,48.0,23.2,22.9,16.8,8.5,55,32,15,0.00,0.00,9,0,9,0.00
2013-12-19,60.1,51.2,36.3,37.0,30.4,21.7,65,45,34,0.00,0.00,8,0,8,0.00
2013-12-20,36.1,23.0,19.6,24.2,12.6,7.7,78,64,54,0.00,0.00,6,0,6,0.00
2013-12-21,27.0,24.3,21.6,20.4,13.3,8.7,78,63,53,0.00,0.00,7,0,7,0.00
2013-12-22,30.7,20.2,6.1,17.5,6.9,-8.6,77,57,41,0.00,0.00,6,0,6,0.00
2013-12-23,23.9,12.1,3.7,0.5,-7.0,-14.1,50,42,33,0.00,0.00,5,0,5,0.00
2013-12-24,32.4,20.6,4.5,22.6,2.0,-17.1,73,45,32,0.00,0.00,6,0,6,0.00
2013-12-25,47.3,32.4,20.7,26.5,17.7,11.4,79,57,30,0.00,0.00,2,0,2,0.00
2013-12-26,53.1,32.3,16.9,20.0,14.6,9.9,82,52,26,0.00,0.00,11,0,11,0.00
2013-12-27,61.7,38.4,19.4,34.7,16.8,7.7,83,48,16,0.00,0.00,2,0,2,0.00
2013-12-28,59.9,43.7,32.5,23.1,19.3,15.2,62,40,19,0.00,0.00,6,0,9,0.00
2013-12-29,37.0,19.1,7.5,18.7,-6.6,-21.7,47,32,20,0.00,0.00,11,0,11,0.00
2013-12-30,38.8,21.0,6.3,6.2,-7.5,-22.8,53,28,19,0.00,0.00,0,0,0,0.00
2013-12-31,56.1,34.8,15.1,21.3,9.1,2.6,74,39,15,0.00,0.00,9,0,9,0.00
2014-1-1,38.7,19.2,7.5,10.3,2.4,-6.4,57,48,30,0.00,0.00,5,0,5,0.00
2014-1-2,21.9,11.2,0.1,-0.7,-7.0,-13.3,52,44,34,0.00,0.00,3,0,3,0.00